Location: Ferchesar
(52.6477°N, 12.4298°E)
Time: 03:27:35
(UTC+01:00)

Vanguard 1 - Pass Details

Date: 11 December 2021
Orbit: 652 x 3830 km, 34.2° (Epoch: 21 January)

Event Time Altitude Azimuth Distance (km) Brightness Sun altitude
Rises 01:34:11 0° 260° (W) 7,347 - -55.7°
Reaches altitude 10° 01:39:08 10° 254° (WSW) 6,589 - -55.2°
Maximum altitude 01:59:33 44° 193° (SSW) 4,649 - -53.0°
Exits shadow 02:08:31 33° 152° (SSE) 4,918 13.3 -52.0°
Drops below altitude 10° 02:18:02 10° 130° (SE) 6,002 14.1 -50.9°
Sets 02:22:17 0° 124° (SE) 6,671 14.5 -50.3°
